Location: Seasalter
(51.3333°N, 1.0167°E)
Time: 15:30:14
(UTC+00:00)

ATLAS 5 CENTAUR R/B - Pass Details

Date: 24 April 2024
Orbit: 421 x 1169 km, 63.3° (Epoch: 22 May)

Event Time Altitude Azimuth Distance (km) Brightness Sun altitude
Rises 23:09:09 0° 313° (NW) 2,717 5.7 -24.7°
Reaches altitude 10° 23:11:30 10° 327° (NNW) 1,927 5.0 -24.7°
Maximum altitude 23:15:09 25° 25° (NNE) 1,336 3.8 -24.8°
Drops below altitude 10° 23:19:28 10° 80° (E) 2,311 4.5 -25.0°
Sets 23:22:34 0° 93° (E) 3,393 5.2 -25.0°
